owner,sensor,date,latitude,longitude,air_pressure(mBar),qcFlag 
TABS,ioos:station:wmo:42044:1,2005-07-01T00:00:00Z,26.1914,-97.0507,1011.67,11111222 
TABS,ioos:station:wmo:42044:1,2005-07-01T00:10:00Z,26.1914,-97.0507,1011.59,11111222 
TABS,ioos:station:wmo:42044:1,2005-07-01T00:20:00Z,26.1914,-97.0507,1011.7,11111222 
TABS,ioos:station:wmo:42044:1,2005-07-01T00:30:00Z,26.1914,-97.0507,1011.73,11111222 
TABS,ioos:station:wmo:42044:1,2005-07-01T00:40:00Z,26.1914,-97.0507,1011.68,11111222 
TABS,ioos:station:wmo:42044:1,2005-07-01T00:50:00Z,26.1914,-97.0507,1011.67,11111222 
TABS,ioos:station:wmo:42044:1,2005-07-01T01:00:00Z,26.1914,-97.0507,1011.71,11111222 
TABS,ioos:station:wmo:42044:1,2005-07-01T01:10:00Z,26.1914,-97.0507,1011.67,11111222 
TABS,ioos:station:wmo:42044:1,2005-07-01T01:20:00Z,26.1914,-97.0507,1011.68,11111222 
TABS,ioos:station:wmo:42044:1,2005-07-01T01:30:00Z,26.1914,-97.0507,1011.74,11111222 
TABS,ioos:station:wmo:42044:1,2005-07-01T01:40:00Z,26.1914,-97.0507,1011.75,11111222 
TABS,ioos:station:wmo:42044:1,2005-07-01T01:50:00Z,26.1914,-97.0507,1011.81,11111222 
TABS,ioos:station:wmo:42044:1,2005-07-01T02:00:00Z,26.1914,-97.0507,1011.77,11111222 
TABS,ioos:station:wmo:42044:1,2005-07-01T02:10:00Z,26.1914,-97.0507,1011.66,11111222 
TABS,ioos:station:wmo:42044:1,2005-07-01T02:20:00Z,26.1914,-97.0507,1011.73,11111222 
TABS,ioos:station:wmo:42044:1,2005-07-01T02:30:00Z,26.1914,-97.0507,1011.75,11111222 
TABS,ioos:station:wmo:42044:1,2005-07-01T02:40:00Z,26.1914,-97.0507,1011.79,11111222 
TABS,ioos:station:wmo:42044:1,2005-07-01T02:50:00Z,26.1914,-97.0507,1011.81,11111222 
TABS,ioos:station:wmo:42044:1,2005-07-01T03:00:00Z,26.1914,-97.0507,1012.0,11111222 
TABS,ioos:station:wmo:42044:1,2005-07-01T03:10:00Z,26.1914,-97.0507,1012.03,11111222 
TABS,ioos:station:wmo:42044:1,2005-07-01T03:20:00Z,26.1914,-97.0507,1012.2,11111222 
TABS,ioos:station:wmo:42044:1,2005-07-01T03:30:00Z,26.1914,-97.0507,1012.38,11111222 
TABS,ioos:station:wmo:42044:1,2005-07-01T03:40:00Z,26.1914,-97.0507,1012.57,11111222 
TABS,ioos:station:wmo:42044:1,2005-07-01T03:50:00Z,26.1914,-97.0507,1012.63,11111222 
TABS,ioos:station:wmo:42044:1,2005-07-01T04:00:00Z,26.1914,-97.0507,1012.75,11111222 
TABS,ioos:station:wmo:42044:1,2005-07-01T04:10:00Z,26.1914,-97.0507,1012.82,11111222 
TABS,ioos:station:wmo:42044:1,2005-07-01T04:20:00Z,26.1914,-97.0507,1012.96,11111222 
TABS,ioos:station:wmo:42044:1,2005-07-01T04:30:00Z,26.1914,-97.0507,1013.14,11111222 
TABS,ioos:station:wmo:42044:1,2005-07-01T04:40:00Z,26.1914,-97.0507,1013.21,11111222 
TABS,ioos:station:wmo:42044:1,2005-07-01T04:50:00Z,26.1914,-97.0507,1013.08,11111222 
TABS,ioos:station:wmo:42044:1,2005-07-01T05:00:00Z,26.1914,-97.0507,1013.1,11111222 
TABS,ioos:station:wmo:42044:1,2005-07-01T05:10:00Z,26.1914,-97.0507,1013.15,11111222 
TABS,ioos:station:wmo:42044:1,2005-07-01T05:20:00Z,26.1914,-97.0507,1013.17,11111222 
TABS,ioos:station:wmo:42044:1,2005-07-01T05:30:00Z,26.1914,-97.0507,1013.23,11111222 
TABS,ioos:station:wmo:42044:1,2005-07-01T05:40:00Z,26.1914,-97.0507,1013.16,11111222 
TABS,ioos:station:wmo:42044:1,2005-07-01T05:50:00Z,26.1914,-97.0507,1013.08,11111222 
TABS,ioos:station:wmo:42044:1,2005-07-01T06:00:00Z,26.1914,-97.0507,1013.04,11111222 
TABS,ioos:station:wmo:42044:1,2005-07-01T06:10:00Z,26.1914,-97.0507,1012.98,11111222 
TABS,ioos:station:wmo:42044:1,2005-07-01T06:20:00Z,26.1914,-97.0507,1012.79,11111222 
TABS,ioos:station:wmo:42044:1,2005-07-01T06:30:00Z,26.1914,-97.0507,1012.61,11111222 
TABS,ioos:station:wmo:42044:1,2005-07-01T06:40:00Z,26.1914,-97.0507,1012.56,11111222 
TABS,ioos:station:wmo:42044:1,2005-07-01T06:50:00Z,26.1914,-97.0507,1012.53,11111222 
TABS,ioos:station:wmo:42044:1,2005-07-01T07:00:00Z,26.1914,-97.0507,1012.46,11111222 
TABS,ioos:station:wmo:42044:1,2005-07-01T07:10:00Z,26.1914,-97.0507,1012.33,11111222 
TABS,ioos:station:wmo:42044:1,2005-07-01T07:20:00Z,26.1914,-97.0507,1012.19,11111222 
TABS,ioos:station:wmo:42044:1,2005-07-01T07:30:00Z,26.1914,-97.0507,1012.08,11111222 
TABS,ioos:station:wmo:42044:1,2005-07-01T07:40:00Z,26.1914,-97.0507,1011.95,11111222 
TABS,ioos:station:wmo:42044:1,2005-07-01T07:50:00Z,26.1914,-97.0507,1011.89,11111222 
TABS,ioos:station:wmo:42044:1,2005-07-01T08:00:00Z,26.1914,-97.0507,1011.85,11111222 
TABS,ioos:station:wmo:42044:1,2005-07-01T08:10:00Z,26.1914,-97.0507,1011.86,11111222 
TABS,ioos:station:wmo:42044:1,2005-07-01T08:20:00Z,26.1914,-97.0507,1011.8,11111222 
TABS,ioos:station:wmo:42044:1,2005-07-01T08:30:00Z,26.1914,-97.0507,1011.85,11111222 
TABS,ioos:station:wmo:42044:1,2005-07-01T08:40:00Z,26.1914,-97.0507,1011.76,11111222 
TABS,ioos:station:wmo:42044:1,2005-07-01T08:50:00Z,26.1914,-97.0507,1011.6,11111222 
TABS,ioos:station:wmo:42044:1,2005-07-01T09:00:00Z,26.1914,-97.0507,1011.47,11111222 
TABS,ioos:station:wmo:42044:1,2005-07-01T09:10:00Z,26.1914,-97.0507,1011.42,11111222 
TABS,ioos:station:wmo:42044:1,2005-07-01T09:20:00Z,26.1914,-97.0507,1011.39,11111222 
TABS,ioos:station:wmo:42044:1,2005-07-01T09:30:00Z,26.1914,-97.0507,1011.47,11111222 
TABS,ioos:station:wmo:42044:1,2005-07-01T09:40:00Z,26.1914,-97.0507,1011.53,11111222 
TABS,ioos:station:wmo:42044:1,2005-07-01T09:50:00Z,26.1914,-97.0507,1011.54,11111222 
TABS,ioos:station:wmo:42044:1,2005-07-01T10:00:00Z,26.1914,-97.0507,1011.47,11111222 
TABS,ioos:station:wmo:42044:1,2005-07-01T10:10:00Z,26.1914,-97.0507,1011.37,11111222 
TABS,ioos:station:wmo:42044:1,2005-07-01T10:20:00Z,26.1914,-97.0507,1011.35,11111222 
TABS,ioos:station:wmo:42044:1,2005-07-01T10:30:00Z,26.1914,-97.0507,1011.49,11111222 
TABS,ioos:station:wmo:42044:1,2005-07-01T10:40:00Z,26.1914,-97.0507,1011.49,11111222 
TABS,ioos:station:wmo:42044:1,2005-07-01T10:50:00Z,26.1914,-97.0507,1011.52,11111222 
TABS,ioos:station:wmo:42044:1,2005-07-01T11:00:00Z,26.1914,-97.0507,1011.71,11111222 
TABS,ioos:station:wmo:42044:1,2005-07-01T11:10:00Z,26.1914,-97.0507,1011.64,11111222 
TABS,ioos:station:wmo:42044:1,2005-07-01T11:20:00Z,26.1914,-97.0507,1011.76,11111222 
TABS,ioos:station:wmo:42044:1,2005-07-01T11:30:00Z,26.1914,-97.0507,1011.79,11111222 
TABS,ioos:station:wmo:42044:1,2005-07-01T11:40:00Z,26.1914,-97.0507,1011.8,11111222 
TABS,ioos:station:wmo:42044:1,2005-07-01T11:50:00Z,26.1914,-97.0507,1011.94,11111222 
TABS,ioos:station:wmo:42044:1,2005-07-01T12:00:00Z,26.1914,-97.0507,1011.91,11111222 
TABS,ioos:station:wmo:42044:1,2005-07-01T12:10:00Z,26.1914,-97.0507,1012.04,11111222 
TABS,ioos:station:wmo:42044:1,2005-07-01T12:20:00Z,26.1914,-97.0507,1012.07,11111222 
TABS,ioos:station:wmo:42044:1,2005-07-01T12:30:00Z,26.1914,-97.0507,1011.97,11111222 
TABS,ioos:station:wmo:42044:1,2005-07-01T12:40:00Z,26.1914,-97.0507,1012.02,11111222 
TABS,ioos:station:wmo:42044:1,2005-07-01T12:50:00Z,26.1914,-97.0507,1012.14,11111222 
TABS,ioos:station:wmo:42044:1,2005-07-01T13:00:00Z,26.1914,-97.0507,1012.06,11111222 
TABS,ioos:station:wmo:42044:1,2005-07-01T13:10:00Z,26.1914,-97.0507,1012.19,11111222 
TABS,ioos:station:wmo:42044:1,2005-07-01T13:20:00Z,26.1914,-97.0507,1012.35,11111222 
TABS,ioos:station:wmo:42044:1,2005-07-01T13:30:00Z,26.1914,-97.0507,1012.43,11111222 
TABS,ioos:station:wmo:42044:1,2005-07-01T13:40:00Z,26.1914,-97.0507,1012.5,11111222 
TABS,ioos:station:wmo:42044:1,2005-07-01T13:50:00Z,26.1914,-97.0507,1012.37,11111222 
TABS,ioos:station:wmo:42044:1,2005-07-01T14:00:00Z,26.1914,-97.0507,1012.44,11111222 
TABS,ioos:station:wmo:42044:1,2005-07-01T14:10:00Z,26.1914,-97.0507,1012.64,11111222 
TABS,ioos:station:wmo:42044:1,2005-07-01T14:20:00Z,26.1914,-97.0507,1012.66,11111222 
TABS,ioos:station:wmo:42044:1,2005-07-01T14:30:00Z,26.1914,-97.0507,1012.73,11111222 
TABS,ioos:station:wmo:42044:1,2005-07-01T14:40:00Z,26.1914,-97.0507,1012.97,11111222 
TABS,ioos:station:wmo:42044:1,2005-07-01T14:50:00Z,26.1914,-97.0507,1012.88,11111222 
TABS,ioos:station:wmo:42044:1,2005-07-01T15:00:00Z,26.1914,-97.0507,1012.86,11111222 
TABS,ioos:station:wmo:42044:1,2005-07-01T15:10:00Z,26.1914,-97.0507,1012.94,11111222 
TABS,ioos:station:wmo:42044:1,2005-07-01T15:20:00Z,26.1914,-97.0507,1012.85,11111222 
TABS,ioos:station:wmo:42044:1,2005-07-01T15:30:00Z,26.1914,-97.0507,1012.68,11111222 
TABS,ioos:station:wmo:42044:1,2005-07-01T15:40:00Z,26.1914,-97.0507,1012.85,11111222 
TABS,ioos:station:wmo:42044:1,2005-07-01T15:50:00Z,26.1914,-97.0507,1012.96,11111222 
TABS,ioos:station:wmo:42044:1,2005-07-01T16:00:00Z,26.1914,-97.0507,1012.98,11111222 
TABS,ioos:station:wmo:42044:1,2005-07-01T16:10:00Z,26.1914,-97.0507,1012.95,11111222 
TABS,ioos:station:wmo:42044:1,2005-07-01T16:20:00Z,26.1914,-97.0507,1013.04,11111222 
TABS,ioos:station:wmo:42044:1,2005-07-01T16:30:00Z,26.1914,-97.0507,1013.07,11111222 
TABS,ioos:station:wmo:42044:1,2005-07-01T16:40:00Z,26.1914,-97.0507,1012.95,11111222 
TABS,ioos:station:wmo:42044:1,2005-07-01T16:50:00Z,26.1914,-97.0507,1012.81,11111222 
TABS,ioos:station:wmo:42044:1,2005-07-01T17:00:00Z,26.1914,-97.0507,1012.72,11111222 
TABS,ioos:station:wmo:42044:1,2005-07-01T17:10:00Z,26.1914,-97.0507,1012.69,11111222 
TABS,ioos:station:wmo:42044:1,2005-07-01T17:20:00Z,26.1914,-97.0507,1012.68,11111222 
TABS,ioos:station:wmo:42044:1,2005-07-01T17:30:00Z,26.1914,-97.0507,1012.66,11111222 
TABS,ioos:station:wmo:42044:1,2005-07-01T17:40:00Z,26.1914,-97.0507,1012.61,11111222 
TABS,ioos:station:wmo:42044:1,2005-07-01T17:50:00Z,26.1914,-97.0507,1012.7,11111222 
TABS,ioos:station:wmo:42044:1,2005-07-01T18:00:00Z,26.1914,-97.0507,1012.65,11111222 
TABS,ioos:station:wmo:42044:1,2005-07-01T18:10:00Z,26.1914,-97.0507,1012.73,11111222 
TABS,ioos:station:wmo:42044:1,2005-07-01T18:20:00Z,26.1914,-97.0507,1012.76,11111222 
TABS,ioos:station:wmo:42044:1,2005-07-01T18:30:00Z,26.1914,-97.0507,1012.77,11111222 
TABS,ioos:station:wmo:42044:1,2005-07-01T18:40:00Z,26.1914,-97.0507,1012.42,11111222 
TABS,ioos:station:wmo:42044:1,2005-07-01T18:50:00Z,26.1914,-97.0507,1012.31,11111222 
TABS,ioos:station:wmo:42044:1,2005-07-01T19:00:00Z,26.1914,-97.0507,1012.2,11111222 
TABS,ioos:station:wmo:42044:1,2005-07-01T19:10:00Z,26.1914,-97.0507,1012.05,11111222 
TABS,ioos:station:wmo:42044:1,2005-07-01T19:20:00Z,26.1914,-97.0507,1011.82,11111222 
TABS,ioos:station:wmo:42044:1,2005-07-01T19:30:00Z,26.1914,-97.0507,1011.71,11111222 
TABS,ioos:station:wmo:42044:1,2005-07-01T19:40:00Z,26.1914,-97.0507,1011.7,11111222 
TABS,ioos:station:wmo:42044:1,2005-07-01T19:50:00Z,26.1914,-97.0507,1011.62,11111222 
TABS,ioos:station:wmo:42044:1,2005-07-01T20:00:00Z,26.1914,-97.0507,1011.35,11111222 
TABS,ioos:station:wmo:42044:1,2005-07-01T20:10:00Z,26.1914,-97.0507,1011.1,11111222 
TABS,ioos:station:wmo:42044:1,2005-07-01T20:20:00Z,26.1914,-97.0507,1011.0,11111222 
TABS,ioos:station:wmo:42044:1,2005-07-01T20:30:00Z,26.1914,-97.0507,1010.82,11111222 
TABS,ioos:station:wmo:42044:1,2005-07-01T20:40:00Z,26.1914,-97.0507,1010.99,11111222 
TABS,ioos:station:wmo:42044:1,2005-07-01T20:50:00Z,26.1914,-97.0507,1011.06,11111222 
TABS,ioos:station:wmo:42044:1,2005-07-01T21:00:00Z,26.1914,-97.0507,1010.92,11111222 
TABS,ioos:station:wmo:42044:1,2005-07-01T21:10:00Z,26.1914,-97.0507,1010.72,11111222 
TABS,ioos:station:wmo:42044:1,2005-07-01T21:20:00Z,26.1914,-97.0507,1010.67,11111222 
TABS,ioos:station:wmo:42044:1,2005-07-01T21:30:00Z,26.1914,-97.0507,1010.55,11111222 
TABS,ioos:station:wmo:42044:1,2005-07-01T21:40:00Z,26.1914,-97.0507,1010.69,11111222 
TABS,ioos:station:wmo:42044:1,2005-07-01T21:50:00Z,26.1914,-97.0507,1010.65,11111222 
TABS,ioos:station:wmo:42044:1,2005-07-01T22:00:00Z,26.1914,-97.0507,1010.58,11111222 
TABS,ioos:station:wmo:42044:1,2005-07-01T22:10:00Z,26.1914,-97.0507,1010.58,11111222 
TABS,ioos:station:wmo:42044:1,2005-07-01T22:20:00Z,26.1914,-97.0507,1010.65,11111222 
TABS,ioos:station:wmo:42044:1,2005-07-01T22:30:00Z,26.1914,-97.0507,1010.49,11111222 
TABS,ioos:station:wmo:42044:1,2005-07-01T22:40:00Z,26.1914,-97.0507,1010.59,11111222 
TABS,ioos:station:wmo:42044:1,2005-07-01T22:50:00Z,26.1914,-97.0507,1010.7,11111222 
TABS,ioos:station:wmo:42044:1,2005-07-01T23:00:00Z,26.1914,-97.0507,1010.6,11111222 
TABS,ioos:station:wmo:42044:1,2005-07-01T23:10:00Z,26.1914,-97.0507,1010.45,11111222 
TABS,ioos:station:wmo:42044:1,2005-07-01T23:20:00Z,26.1914,-97.0507,1010.32,11111222 
TABS,ioos:station:wmo:42044:1,2005-07-01T23:30:00Z,26.1914,-97.0507,1010.42,11111222 
TABS,ioos:station:wmo:42044:1,2005-07-01T23:40:00Z,26.1914,-97.0507,1010.44,11111222 
TABS,ioos:station:wmo:42044:1,2005-07-01T23:50:00Z,26.1914,-97.0507,1010.6,11111222 
TABS,ioos:station:wmo:42044:1,2005-07-02T00:00:00Z,26.1914,-97.0507,1010.5,11111222 
TABS,ioos:station:wmo:42044:1,2005-07-02T00:10:00Z,26.1914,-97.0507,1010.47,11111222 
TABS,ioos:station:wmo:42044:1,2005-07-02T00:20:00Z,26.1914,-97.0507,1010.51,11111222 
TABS,ioos:station:wmo:42044:1,2005-07-02T00:30:00Z,26.1914,-97.0507,1010.65,11111222 
TABS,ioos:station:wmo:42044:1,2005-07-02T00:40:00Z,26.1914,-97.0507,1010.69,11111222 
TABS,ioos:station:wmo:42044:1,2005-07-02T00:50:00Z,26.1914,-97.0507,1010.84,11111222 
TABS,ioos:station:wmo:42044:1,2005-07-02T01:00:00Z,26.1914,-97.0507,1010.88,11111222 
TABS,ioos:station:wmo:42044:1,2005-07-02T01:10:00Z,26.1914,-97.0507,1011.03,11111222 
TABS,ioos:station:wmo:42044:1,2005-07-02T01:20:00Z,26.1914,-97.0507,1011.28,11111222 
TABS,ioos:station:wmo:42044:1,2005-07-02T01:30:00Z,26.1914,-97.0507,1011.33,11111222 
TABS,ioos:station:wmo:42044:1,2005-07-02T01:40:00Z,26.1914,-97.0507,1011.39,11111222 
TABS,ioos:station:wmo:42044:1,2005-07-02T01:50:00Z,26.1914,-97.0507,1011.51,11111222 
TABS,ioos:station:wmo:42044:1,2005-07-02T02:00:00Z,26.1914,-97.0507,1011.42,11111222 
TABS,ioos:station:wmo:42044:1,2005-07-02T02:10:00Z,26.1914,-97.0507,1011.54,11111222 
TABS,ioos:station:wmo:42044:1,2005-07-02T02:20:00Z,26.1914,-97.0507,1011.51,11111222 
TABS,ioos:station:wmo:42044:1,2005-07-02T02:30:00Z,26.1914,-97.0507,1011.36,11111222 
TABS,ioos:station:wmo:42044:1,2005-07-02T02:40:00Z,26.1914,-97.0507,1011.33,11111222 
TABS,ioos:station:wmo:42044:1,2005-07-02T02:50:00Z,26.1914,-97.0507,1011.34,11111222 
TABS,ioos:station:wmo:42044:1,2005-07-02T03:00:00Z,26.1914,-97.0507,1011.56,11111222 
TABS,ioos:station:wmo:42044:1,2005-07-02T03:10:00Z,26.1914,-97.0507,1011.63,11111222 
TABS,ioos:station:wmo:42044:1,2005-07-02T03:20:00Z,26.1914,-97.0507,1011.74,11111222 
TABS,ioos:station:wmo:42044:1,2005-07-02T03:30:00Z,26.1914,-97.0507,1011.69,11111222 
TABS,ioos:station:wmo:42044:1,2005-07-02T03:40:00Z,26.1914,-97.0507,1011.68,11111222 
TABS,ioos:station:wmo:42044:1,2005-07-02T03:50:00Z,26.1914,-97.0507,1011.75,11111222 
TABS,ioos:station:wmo:42044:1,2005-07-02T04:00:00Z,26.1914,-97.0507,1011.81,11111222 
TABS,ioos:station:wmo:42044:1,2005-07-02T04:10:00Z,26.1914,-97.0507,1011.62,11111222 
TABS,ioos:station:wmo:42044:1,2005-07-02T04:20:00Z,26.1914,-97.0507,1011.23,11111222 
TABS,ioos:station:wmo:42044:1,2005-07-02T04:30:00Z,26.1914,-97.0507,1011.36,11111222 
TABS,ioos:station:wmo:42044:1,2005-07-02T04:40:00Z,26.1914,-97.0507,1011.34,11111222 
TABS,ioos:station:wmo:42044:1,2005-07-02T04:50:00Z,26.1914,-97.0507,1011.14,11111222 
TABS,ioos:station:wmo:42044:1,2005-07-02T05:00:00Z,26.1914,-97.0507,1011.2,11111222 
TABS,ioos:station:wmo:42044:1,2005-07-02T05:10:00Z,26.1914,-97.0507,1011.21,11111222 
TABS,ioos:station:wmo:42044:1,2005-07-02T05:20:00Z,26.1914,-97.0507,1011.2,11111222 
TABS,ioos:station:wmo:42044:1,2005-07-02T05:30:00Z,26.1914,-97.0507,1011.27,11111222 
TABS,ioos:station:wmo:42044:1,2005-07-02T05:40:00Z,26.1914,-97.0507,1011.21,11111222 
TABS,ioos:station:wmo:42044:1,2005-07-02T05:50:00Z,26.1914,-97.0507,1011.32,11111222 
TABS,ioos:station:wmo:42044:1,2005-07-02T06:00:00Z,26.1914,-97.0507,1011.11,11111222 
TABS,ioos:station:wmo:42044:1,2005-07-02T06:10:00Z,26.1914,-97.0507,1011.32,11111222 
TABS,ioos:station:wmo:42044:1,2005-07-02T06:20:00Z,26.1914,-97.0507,1011.37,11111222 
TABS,ioos:station:wmo:42044:1,2005-07-02T06:30:00Z,26.1914,-97.0507,1011.27,11111222 
TABS,ioos:station:wmo:42044:1,2005-07-02T06:40:00Z,26.1914,-97.0507,1010.95,11111222 
TABS,ioos:station:wmo:42044:1,2005-07-02T06:50:00Z,26.1914,-97.0507,1010.73,11111222 
TABS,ioos:station:wmo:42044:1,2005-07-02T07:00:00Z,26.1914,-97.0507,1010.45,11111222 
TABS,ioos:station:wmo:42044:1,2005-07-02T07:10:00Z,26.1914,-97.0507,1010.16,11111222 
TABS,ioos:station:wmo:42044:1,2005-07-02T07:20:00Z,26.1914,-97.0507,1010.3,11111222 
TABS,ioos:station:wmo:42044:1,2005-07-02T07:30:00Z,26.1914,-97.0507,1010.74,11111222 
TABS,ioos:station:wmo:42044:1,2005-07-02T07:40:00Z,26.1914,-97.0507,1010.66,11111222 
TABS,ioos:station:wmo:42044:1,2005-07-02T07:50:00Z,26.1914,-97.0507,1010.73,11111222 
TABS,ioos:station:wmo:42044:1,2005-07-02T08:00:00Z,26.1914,-97.0507,1010.66,11111222 
TABS,ioos:station:wmo:42044:1,2005-07-02T08:10:00Z,26.1914,-97.0507,1010.5,11111222 
TABS,ioos:station:wmo:42044:1,2005-07-02T08:20:00Z,26.1914,-97.0507,1010.46,11111222 
TABS,ioos:station:wmo:42044:1,2005-07-02T08:30:00Z,26.1914,-97.0507,1010.64,11111222 
TABS,ioos:station:wmo:42044:1,2005-07-02T08:40:00Z,26.1914,-97.0507,1010.64,11111222 
TABS,ioos:station:wmo:42044:1,2005-07-02T08:50:00Z,26.1914,-97.0507,1010.39,11111222 
TABS,ioos:station:wmo:42044:1,2005-07-02T09:00:00Z,26.1914,-97.0507,1010.38,11111222 
TABS,ioos:station:wmo:42044:1,2005-07-02T09:10:00Z,26.1914,-97.0507,1010.55,11111222 
TABS,ioos:station:wmo:42044:1,2005-07-02T09:20:00Z,26.1914,-97.0507,1010.51,11111222 
TABS,ioos:station:wmo:42044:1,2005-07-02T09:30:00Z,26.1914,-97.0507,1010.37,11111222 
TABS,ioos:station:wmo:42044:1,2005-07-02T09:40:00Z,26.1914,-97.0507,1010.47,11111222 
TABS,ioos:station:wmo:42044:1,2005-07-02T09:50:00Z,26.1914,-97.0507,1010.65,11111222 
TABS,ioos:station:wmo:42044:1,2005-07-02T10:00:00Z,26.1914,-97.0507,1010.71,11111222 
TABS,ioos:station:wmo:42044:1,2005-07-02T10:10:00Z,26.1914,-97.0507,1010.97,11111222 
TABS,ioos:station:wmo:42044:1,2005-07-02T10:20:00Z,26.1914,-97.0507,1010.81,11111222 
TABS,ioos:station:wmo:42044:1,2005-07-02T10:30:00Z,26.1914,-97.0507,1010.74,11111222 
TABS,ioos:station:wmo:42044:1,2005-07-02T10:40:00Z,26.1914,-97.0507,1010.66,11111222 
TABS,ioos:station:wmo:42044:1,2005-07-02T10:50:00Z,26.1914,-97.0507,1010.84,11111222 
TABS,ioos:station:wmo:42044:1,2005-07-02T11:00:00Z,26.1914,-97.0507,1010.95,11111222 
TABS,ioos:station:wmo:42044:1,2005-07-02T11:10:00Z,26.1914,-97.0507,1011.07,11111222 
TABS,ioos:station:wmo:42044:1,2005-07-02T11:20:00Z,26.1914,-97.0507,1011.12,11111222 
TABS,ioos:station:wmo:42044:1,2005-07-02T11:30:00Z,26.1914,-97.0507,1011.26,11111222 
TABS,ioos:station:wmo:42044:1,2005-07-02T11:40:00Z,26.1914,-97.0507,1011.22,11111222 
TABS,ioos:station:wmo:42044:1,2005-07-02T11:50:00Z,26.1914,-97.0507,1011.39,11111222 
TABS,ioos:station:wmo:42044:1,2005-07-02T12:00:00Z,26.1914,-97.0507,1011.45,11111222 
TABS,ioos:station:wmo:42044:1,2005-07-02T12:10:00Z,26.1914,-97.0507,1011.5,11111222 
TABS,ioos:station:wmo:42044:1,2005-07-02T12:20:00Z,26.1914,-97.0507,1011.58,11111222 
TABS,ioos:station:wmo:42044:1,2005-07-02T12:30:00Z,26.1914,-97.0507,1011.56,11111222 
TABS,ioos:station:wmo:42044:1,2005-07-02T12:40:00Z,26.1914,-97.0507,1011.63,11111222 
TABS,ioos:station:wmo:42044:1,2005-07-02T12:50:00Z,26.1914,-97.0507,1011.82,11111222 
TABS,ioos:station:wmo:42044:1,2005-07-02T13:00:00Z,26.1914,-97.0507,1011.85,11111222 
TABS,ioos:station:wmo:42044:1,2005-07-02T13:10:00Z,26.1914,-97.0507,1011.99,11111222 
TABS,ioos:station:wmo:42044:1,2005-07-02T13:20:00Z,26.1914,-97.0507,1012.06,11111222 
TABS,ioos:station:wmo:42044:1,2005-07-02T13:30:00Z,26.1914,-97.0507,1012.21,11111222 
TABS,ioos:station:wmo:42044:1,2005-07-02T13:40:00Z,26.1914,-97.0507,1012.27,11111222 
TABS,ioos:station:wmo:42044:1,2005-07-02T13:50:00Z,26.1914,-97.0507,1012.4,11111222 
TABS,ioos:station:wmo:42044:1,2005-07-02T14:00:00Z,26.1914,-97.0507,1012.41,11111222 
TABS,ioos:station:wmo:42044:1,2005-07-02T14:10:00Z,26.1914,-97.0507,1012.37,11111222 
TABS,ioos:station:wmo:42044:1,2005-07-02T14:20:00Z,26.1914,-97.0507,1012.39,11111222 
TABS,ioos:station:wmo:42044:1,2005-07-02T14:30:00Z,26.1914,-97.0507,1012.41,11111222 
TABS,ioos:station:wmo:42044:1,2005-07-02T14:40:00Z,26.1914,-97.0507,1012.34,11111222 
TABS,ioos:station:wmo:42044:1,2005-07-02T14:50:00Z,26.1914,-97.0507,1012.41,11111222 
TABS,ioos:station:wmo:42044:1,2005-07-02T15:00:00Z,26.1914,-97.0507,1012.32,11111222 
TABS,ioos:station:wmo:42044:1,2005-07-02T15:10:00Z,26.1914,-97.0507,1012.47,11111222 
TABS,ioos:station:wmo:42044:1,2005-07-02T15:20:00Z,26.1914,-97.0507,1012.48,11111222 
TABS,ioos:station:wmo:42044:1,2005-07-02T15:30:00Z,26.1914,-97.0507,1012.57,11111222 
TABS,ioos:station:wmo:42044:1,2005-07-02T15:40:00Z,26.1914,-97.0507,1012.5,11111222 
TABS,ioos:station:wmo:42044:1,2005-07-02T15:50:00Z,26.1914,-97.0507,1012.55,11111222 
TABS,ioos:station:wmo:42044:1,2005-07-02T16:00:00Z,26.1914,-97.0507,1012.55,11111222 
TABS,ioos:station:wmo:42044:1,2005-07-02T16:10:00Z,26.1914,-97.0507,1012.5,11111222 
TABS,ioos:station:wmo:42044:1,2005-07-02T16:20:00Z,26.1914,-97.0507,1012.51,11111222 
TABS,ioos:station:wmo:42044:1,2005-07-02T16:30:00Z,26.1914,-97.0507,1012.6,11111222 
TABS,ioos:station:wmo:42044:1,2005-07-02T16:40:00Z,26.1914,-97.0507,1012.72,11111222 
TABS,ioos:station:wmo:42044:1,2005-07-02T16:50:00Z,26.1914,-97.0507,1012.64,11111222 
TABS,ioos:station:wmo:42044:1,2005-07-02T17:00:00Z,26.1914,-97.0507,1012.6,11111222 
TABS,ioos:station:wmo:42044:1,2005-07-02T17:10:00Z,26.1914,-97.0507,1012.2,11111222 
TABS,ioos:station:wmo:42044:1,2005-07-02T17:20:00Z,26.1914,-97.0507,1012.02,11111222 
TABS,ioos:station:wmo:42044:1,2005-07-02T17:30:00Z,26.1914,-97.0507,1012.03,11111222 
TABS,ioos:station:wmo:42044:1,2005-07-02T17:40:00Z,26.1914,-97.0507,1012.0,11111222 
TABS,ioos:station:wmo:42044:1,2005-07-02T17:50:00Z,26.1914,-97.0507,1011.92,11111222 
TABS,ioos:station:wmo:42044:1,2005-07-02T18:00:00Z,26.1914,-97.0507,1012.01,11111222 
TABS,ioos:station:wmo:42044:1,2005-07-02T18:10:00Z,26.1914,-97.0507,1011.9,11111222 
TABS,ioos:station:wmo:42044:1,2005-07-02T18:20:00Z,26.1914,-97.0507,1011.68,11111222 
TABS,ioos:station:wmo:42044:1,2005-07-02T18:30:00Z,26.1914,-97.0507,1011.6,11111222 
TABS,ioos:station:wmo:42044:1,2005-07-02T18:40:00Z,26.1914,-97.0507,1011.59,11111222 
TABS,ioos:station:wmo:42044:1,2005-07-02T18:50:00Z,26.1914,-97.0507,1011.46,11111222 
TABS,ioos:station:wmo:42044:1,2005-07-02T19:00:00Z,26.1914,-97.0507,1011.22,11111222 
TABS,ioos:station:wmo:42044:1,2005-07-02T19:10:00Z,26.1914,-97.0507,1011.31,11111222 
TABS,ioos:station:wmo:42044:1,2005-07-02T19:20:00Z,26.1914,-97.0507,1011.32,11111222 
TABS,ioos:station:wmo:42044:1,2005-07-02T19:30:00Z,26.1914,-97.0507,1011.17,11111222 
TABS,ioos:station:wmo:42044:1,2005-07-02T19:40:00Z,26.1914,-97.0507,1011.18,11111222 
TABS,ioos:station:wmo:42044:1,2005-07-02T19:50:00Z,26.1914,-97.0507,1011.24,11111222 
TABS,ioos:station:wmo:42044:1,2005-07-02T20:00:00Z,26.1914,-97.0507,1011.19,11111222 
TABS,ioos:station:wmo:42044:1,2005-07-02T20:10:00Z,26.1914,-97.0507,1010.99,11111222 
TABS,ioos:station:wmo:42044:1,2005-07-02T20:20:00Z,26.1914,-97.0507,1010.85,11111222 
TABS,ioos:station:wmo:42044:1,2005-07-02T20:30:00Z,26.1914,-97.0507,1010.89,11111222 
TABS,ioos:station:wmo:42044:1,2005-07-02T20:40:00Z,26.1914,-97.0507,1010.78,11111222 
TABS,ioos:station:wmo:42044:1,2005-07-02T20:50:00Z,26.1914,-97.0507,1010.66,11111222 
TABS,ioos:station:wmo:42044:1,2005-07-02T21:00:00Z,26.1914,-97.0507,1010.57,11111222 
TABS,ioos:station:wmo:42044:1,2005-07-02T21:10:00Z,26.1914,-97.0507,1010.33,11111222 
TABS,ioos:station:wmo:42044:1,2005-07-02T21:20:00Z,26.1914,-97.0507,1010.28,11111222 
TABS,ioos:station:wmo:42044:1,2005-07-02T21:30:00Z,26.1914,-97.0507,1010.13,11111222 
TABS,ioos:station:wmo:42044:1,2005-07-02T21:40:00Z,26.1914,-97.0507,1010.21,11111222 
TABS,ioos:station:wmo:42044:1,2005-07-02T21:50:00Z,26.1914,-97.0507,1010.05,11111222 
TABS,ioos:station:wmo:42044:1,2005-07-02T22:00:00Z,26.1914,-97.0507,1010.1,11111222 
TABS,ioos:station:wmo:42044:1,2005-07-02T22:10:00Z,26.1914,-97.0507,1010.11,11111222 